Temperature
14 14 14 14 14 14 14 14 14 14 15 15 16 16 16 16 16 16 16 15 15 15 15 14 14 15 15 15 15 15 14 14 14 14 14 14 14 14
14 14 14 14 14 14 14 14 14 14 14 15 15 15 15 15 16 16 16 15 15 15 14 14 14 14 14 14 14 14 14 14 14 14 14 14 14 14
13 13 13 13 13 14 14 14 14 14 14 14 15 15 15 15 15 15 15 15 15 15 14 14 14 14 14 14 14 14 14 14 14 14 14 14 14 14
13 13 13 13 13 14 14 14 14 14 14 14 14 14 14 14 15 15 15 15 15 15 14 14 14 14 14 14 14 14 14 14 14 14 14 14 14 14
13 13 13 13 13 14 14 14 14 14 14 14 14 14 14 14 14 14 15 15 15 14 14 14 14 14 14 14 14 14 14 14 14 14 14 14 14 14
13 13 13 13 13 14 14 14 14 14 14 13 13 13 14 14 14 14 14 14 14 14 14 14 14 14 14 14 14 14 14 14 14 14 14 13 13 13
13 13 13 13 14 14 14 14 14 14 14 13 13 13 13 13 14 14 14 14 14 14 13 13 13 13 13 14 14 14 14 13 13 13 13 13 13 13
13 13 13 14 14 14 14 14 14 14 14 13 13 13 13 13 13 13 13 13 13 13 13 13 13 13 13 13 13 13 13 13 13 13 12 12 12 12
13 13 13 13 13 13 14 14 14 14 14 13 13 13 13 13 13 13 13 13 13 12 12 12 12 12 12 12 12 12 12 12 12 12 12 12 11 11
12 13 13 13 13 13 13 13 13 13 13 13 13 13 13 13 13 13 13 13 12 12 12 12 11 11 11 11 11 11 11 11 11 11 11 11 11 11
12 12 12 13 13 13 13 13 13 13 13 13 13 13 13 13 13 13 13 12 12 12 12 11 11 11 11 10 11 11 11 11 11 11 10 10 10 10
11 12 12 12 13 13 13 13 13 13 13 13 13 13 13 13 13 13 13 12 12 12 11 11 11 11 10 10 10 10 10 10 10 10 10 10 10 10
11 11 11 12 12 12 13 13 13 13 13 13 13 13 13 13 12 12 12 12 12 12 12 11 11 11 11 10 9 9 9 9 9 9 9 9 9 9
10 10 11 11 12 12 12 12 12 13 13 13 13 12 12 12 12 12 12 12 12 12 11 11 11 11 10 10 9 9 9 9 9 8 8 8 8 8
10 10 10 11 11 12 12 12 12 12 12 12 12 12 12 12 11 11 11 11 11 11 11 11 11 10 10 10 9 8 8 8 8 8 8 7 7 7
9 10 10 10 11 11 11 12 12 12 12 12 12 12 11 11 11 11 11 10 11 10 10 10 10 10 9 9 8 8 8 7 7 7 6 6 6 6
9 9 10 10 10 11 11 11 11 12 12 11 11 11 11 11 11 10 10 10 10 10 10 9 9 9 8 8 8 7 7 7 6 6 5 5 6 5
9 10 9 10 10 10 11 11 11 11 11 11 11 11 10 10 10 10 10 10 9 9 9 8 8 8 7 7 7 6 6 6 6 5 5 5 5 5
10 10 10 10 10 10 10 10 10 10 10 10 10 10 10 10 10 10 9 9 9 8 8 8 8 7 7 7 6 6 6 5 5 5 5 5 4 4
9 9 9 9 10 10 10 10 10 10 10 10 10 10 9 9 9 9 9 8 8 8 8 8 7 7 7 6 6 5 5 5 5 5 5 4 4 4
9 9 9 9 9 9 9 9 9 9 9 9 9 9 9 9 8 8 8 8 8 7 7 7 7 7 6 6 5 5 5 5 4 4 4 4 4 4
9 9 9 9 9 9 9 9 9 9 9 8 8 8 8 8 8 8 7 7 7 7 7 7 6 6 6 5 5 5 4 4 4 4 4 4 4 3
9 9 9 9 9 9 9 9 8 8 8 8 8 8 7 7 7 7 7 7 7 7 7 6 6 6 5 5 5 4 4 4 4 4 4 3 3 3
Wind_Speed
5 6 5 4 5 5 4 4 5 3 3 3 2 2 2 4 7 8 11 13 15 16 15 13 11 10 9 9 9 8 7 6 6 5 6 7 8 8
3 4 3 3 4 4 4 3 4 4 3 3 3 2 2 3 5 7 10 11 12 14 14 14 12 11 11 10 10 9 9 9 8 8 8 8 9 9
3 3 2 2 3 3 3 3 4 4 4 2 2 2 2 3 2 2 6 7 8 11 13 13 12 12 12 12 11 11 10 11 11 11 10 11 11 10
2 2 1 1 2 3 3 4 4 4 4 3 1 1 2 2 1 0 1 4 5 7 9 10 11 12 12 12 12 12 12 12 12 13 13 13 13 12
2 2 2 2 2 3 4 4 3 3 3 3 2 1 1 1 1 1 1 1 2 2 3 4 6 8 10 10 11 11 11 12 13 14 14 14 14 14
1 2 3 3 4 4 4 4 4 3 3 2 1 1 1 1 1 1 2 2 2 3 5 5 4 3 3 4 5 7 8 10 12 13 14 15 15 15
1 1 3 5 6 5 4 4 4 3 3 2 1 1 0 0 1 1 2 2 3 3 3 4 6 7 8 7 6 5 4 5 7 8 10 11 12 12
2 2 1 2 4 6 7 7 6 5 4 3 2 1 1 1 1 1 2 2 2 2 3 4 4 5 7 9 10 11 11 11 10 9 8 8 7 7
4 3 2 2 4 5 7 8 6 6 5 4 3 2 1 1 2 2 2 3 3 1 2 3 3 5 7 10 13 14 14 14 14 14 13 12 12 11
6 4 3 3 3 5 6 6 5 5 5 4 4 3 2 2 2 3 5 5 5 4 2 3 3 3 4 9 14 15 15 15 15 15 15 15 15 15
6 6 5 4 3 5 7 7 7 5 7 10 10 9 9 8 6 5 4 4 4 4 3 3 2 2 3 5 12 15 17 18 18 18 17 16 16 15
5 6 8 6 5 5 5 6 7 5 5 6 7 9 9 11 10 5 4 4 3 3 3 3 2 2 3 4 7 12 13 17 20 22 21 20 17 13
4 4 5 7 6 6 6 4 6 6 6 6 6 6 7 7 7 8 6 4 4 3 1 2 2 2 3 2 3 8 11 11 12 15 19 21 22 17
4 3 4 6 7 7 5 6 9 8 6 6 6 6 6 6 7 9 13 14 11 7 5 3 3 2 3 3 2 3 7 10 11 10 12 16 17 16
4 5 7 8 8 7 8 9 7 6 6 6 6 4 3 4 4 5 8 12 15 15 13 8 5 3 4 3 2 2 2 5 8 8 9 11 11 11
5 7 10 11 9 8 7 7 5 5 5 6 5 3 3 4 4 3 4 4 6 7 13 16 13 8 6 6 5 4 4 3 4 4 5 7 10 12
4 5 6 5 6 6 6 6 5 5 5 4 5 5 5 5 4 4 3 4 5 4 5 7 15 17 13 6 5 5 4 3 3 2 3 5 6 10
7 7 7 7 6 6 6 6 5 5 4 5 5 5 5 6 6 5 5 6 6 4 3 2 2 2 4 8 10 4 3 3 3 3 2 3 5 7
8 7 7 6 6 6 5 5 4 4 4 5 6 5 6 6 6 6 5 5 5 4 3 2 2 2 2 2 4 10 4 2 2 3 4 3 3 4
7 6 6 6 6 6 5 5 5 5 5 5 5 5 5 5 5 5 4 4 3 3 3 4 4 3 2 3 3 3 10 4 2 2 3 2 2 5
6 6 5 5 5 5 5 5 5 5 5 5 5 5 4 5 5 4 4 5 3 3 3 3 3 2 2 4 4 2 4 9 7 3 2 2 3 4
4 4 4 5 5 5 5 5 5 5 5 5 4 4 4 4 5 5 4 3 3 2 2 2 3 2 3 3 3 2 2 5 8 9 9 6 1 3
2 3 3 4 4 4 4 5 5 4 4 4 4 4 4 4 4 4 4 3 3 3 2 2 3 4 3 3 3 2 2 3 4 4 5 9 7 4
Wind_Direction
180 185 190 191 189 189 179 171 167 194 247 271 285 299 281 258 250 231 228 230 225 223 222 224 228 232 239 240 240 243 248 254 258 263 270 283 292 298
154 164 172 170 180 182 181 179 175 173 213 246 255 276 301 295 261 230 229 230 227 224 223 225 229 234 241 245 246 248 253 257 260 263 268 275 281 287
128 145 155 159 169 173 167 168 172 163 198 248 259 289 304 312 328 247 231 221 223 225 225 227 232 237 243 248 250 252 256 259 262 264 268 272 276 280
151 141 165 167 177 172 170 179 178 175 179 218 267 304 305 319 323 274 204 203 208 220 224 230 236 242 246 248 251 254 257 260 264 266 269 273 276 280
175 177 203 186 206 191 183 186 178 173 173 187 238 280 311 343 30 54 76 74 159 184 205 231 245 251 253 253 253 256 261 265 268 270 271 273 276 279
214 205 201 204 217 201 188 180 160 151 150 171 217 254 277 311 97 105 85 65 57 67 71 64 52 34 341 292 273 269 272 275 277 277 278 278 278 279
287 241 225 217 213 190 171 159 146 138 138 155 173 170 232 173 154 145 119 101 63 48 66 51 55 56 48 42 35 23 357 330 315 306 298 292 288 285
359 334 283 199 179 159 149 147 145 145 150 146 145 154 186 198 150 118 124 118 92 33 81 62 54 60 50 49 51 54 52 48 44 39 30 16 359 342
21 10 28 86 111 116 119 115 111 121 132 141 136 144 153 177 146 109 94 92 94 49 86 77 53 62 50 50 54 56 55 53 52 50 48 43 38 33
29 30 48 51 75 114 115 104 88 77 94 97 105 103 111 117 124 119 115 100 84 44 58 88 51 57 47 46 46 53 56 55 53 50 47 46 46 46
27 33 46 48 58 116 120 115 100 82 81 89 84 82 84 91 103 102 97 96 83 43 30 91 78 71 54 38 39 51 56 54 53 51 48 48 50 50
22 24 31 40 65 105 120 125 120 110 100 86 69 63 64 62 63 76 109 110 109 81 25 82 83 96 89 44 37 40 48 51 55 54 52 50 50 50
23 18 12 31 63 94 106 118 133 126 107 96 83 70 63 58 54 55 62 92 105 91 43 92 98 80 96 92 45 38 46 46 52 53 52 51 51 51
19 7 9 40 66 86 93 109 116 112 106 98 88 79 73 70 68 69 72 71 71 75 49 69 96 96 103 88 71 37 46 45 51 53 49 45 43 45
29 42 53 59 63 65 78 95 99 104 108 102 98 88 79 84 84 79 74 75 65 53 43 50 76 81 81 92 80 32 49 42 45 55 53 48 41 34
39 53 64 66 65 62 63 67 71 92 107 109 106 90 77 79 72 72 76 67 64 47 40 51 66 78 81 71 77 60 45 47 30 49 63 55 44 37
43 51 54 57 60 60 62 64 66 78 88 90 100 98 90 82 63 51 64 67 81 80 64 54 69 75 69 65 67 55 50 45 28 27 55 55 39 29
59 58 56 57 62 64 72 72 66 70 78 93 96 97 97 93 84 70 74 87 94 90 84 43 34 67 71 59 42 48 41 32 20 29 42 48 28 15
59 56 54 54 57 60 64 73 68 59 72 87 92 93 96 94 95 92 89 88 86 76 49 24 32 94 103 95 41 33 37 24 28 36 34 36 11 347
49 52 50 50 54 58 60 65 70 68 72 78 82 85 93 99 99 94 90 95 91 75 55 39 39 50 93 121 109 33 28 32 32 23 1 351 334 337
42 45 42 44 48 51 54 58 65 69 73 77 79 84 91 98 98 94 92 90 84 77 66 30 353 22 77 84 87 49 12 31 48 43 4 9 2 359
42 44 39 42 44 47 51 58 65 66 68 73 80 84 86 95 107 107 104 100 89 93 85 40 25 58 63 89 96 74 8 5 27 53 53 51 30 351
47 48 46 42 42 45 53 64 71 70 72 82 89 92 98 98 101 104 105 108 115 107 92 67 45 54 62 77 90 70 36 9 357 3 357 8 13 354
Height
1513 1516 1518 1520 1522 1525 1527 1529 1532 1533 1534 1536 1538 1538 1539 1540 1542 1544 1546 1548 1549 1551 1552 1553 1554 1554 1555 1555 1556 1557 1557 1558 1558 1557 1557 1557 1556 1556
1510 1512 1514 1516 1519 1521 1524 1526 1528 1530 1531 1532 1534 1535 1535 1536 1538 1539 1542 1544 1546 1547 1549 1550 1551 1552 1552 1553 1553 1554 1554 1554 1554 1554 1554 1554 1553 1553
1508 1510 1512 1514 1516 1519 1521 1523 1525 1527 1528 1530 1530 1531 1532 1533 1534 1536 1538 1540 1542 1544 1545 1547 1548 1549 1549 1550 1550 1551 1551 1551 1551 1551 1550 1550 1550 1549
1507 1509 1510 1513 1515 1517 1518 1520 1522 1524 1526 1527 1528 1528 1529 1529 1531 1532 1535 1537 1539 1540 1542 1543 1545 1546 1546 1547 1547 1547 1548 1548 1548 1547 1547 1546 1546 1545
1507 1508 1510 1511 1513 1515 1517 1518 1520 1522 1523 1524 1525 1525 1526 1527 1528 1529 1531 1533 1535 1537 1539 1540 1541 1542 1543 1543 1544 1544 1544 1544 1544 1543 1543 1542 1541 1540
1506 1508 1509 1511 1512 1514 1516 1517 1519 1520 1521 1522 1523 1523 1524 1524 1525 1527 1529 1530 1532 1534 1535 1537 1538 1539 1539 1540 1540 1540 1540 1539 1539 1538 1538 1537 1536 1535
1506 1507 1509 1510 1512 1513 1515 1516 1518 1518 1519 1520 1521 1521 1522 1523 1523 1525 1526 1527 1529 1531 1532 1534 1535 1535 1536 1536 1536 1536 1536 1535 1535 1534 1533 1532 1531 1530
1505 1507 1508 1509 1511 1513 1515 1516 1517 1518 1519 1519 1520 1520 1521 1521 1522 1523 1524 1525 1527 1529 1530 1531 1532 1533 1533 1533 1533 1533 1533 1532 1531 1531 1530 1529 1527 1526
1505 1506 1507 1509 1511 1513 1514 1516 1517 1518 1519 1520 1520 1520 1520 1521 1521 1522 1523 1524 1525 1527 1529 1530 1531 1532 1532 1532 1532 1532 1531 1531 1530 1529 1528 1527 1525 1524
1504 1505 1507 1508 1510 1512 1514 1516 1517 1518 1519 1520 1520 1520 1521 1521 1522 1522 1523 1524 1525 1527 1529 1530 1531 1532 1533 1533 1533 1532 1532 1531 1530 1529 1528 1526 1525 1523
1504 1505 1506 1508 1510 1512 1514 1516 1517 1519 1520 1521 1521 1522 1522 1522 1523 1523 1524 1525 1526 1528 1529 1530 1531 1532 1533 1534 1534 1533 1533 1532 1531 1529 1528 1527 1525 1523
1504 1505 1506 1507 1509 1511 1514 1516 1518 1519 1521 1522 1523 1523 1524 1524 1524 1525 1525 1526 1527 1528 1530 1531 1532 1533 1534 1535 1534 1534 1533 1532 1531 1530 1528 1527 1525 1523
1504 1504 1505 1507 1509 1511 1513 1516 1518 1520 1521 1523 1524 1525 1525 1526 1526 1526 1527 1528 1528 1529 1531 1531 1532 1533 1534 1535 1535 1534 1533 1532 1531 1530 1528 1526 1524 1522
1504 1504 1505 1507 1509 1511 1513 1516 1518 1520 1522 1524 1525 1526 1526 1527 1528 1528 1529 1529 1530 1531 1532 1533 1533 1534 1534 1534 1535 1534 1534 1533 1531 1530 1528 1526 1524 1521
1505 1505 1506 1507 1509 1511 1514 1516 1519 1521 1523 1525 1526 1527 1528 1529 1529 1530 1531 1531 1532 1532 1533 1533 1534 1534 1534 1534 1534 1534 1534 1532 1531 1530 1528 1526 1523 1521
1507 1507 1508 1509 1510 1512 1515 1518 1520 1522 1524 1526 1527 1528 1529 1530 1531 1532 1533 1533 1533 1533 1534 1534 1534 1534 1534 1534 1534 1534 1533 1532 1531 1529 1527 1525 1523 1521
1510 1510 1510 1511 1513 1514 1517 1519 1521 1523 1525 1527 1528 1530 1531 1532 1533 1533 1534 1534 1534 1534 1534 1534 1534 1534 1534 1535 1534 1534 1533 1532 1531 1529 1528 1526 1524 1521
1514 1514 1514 1514 1516 1517 1519 1521 1523 1525 1527 1528 1530 1531 1532 1533 1534 1534 1535 1535 1535 1535 1535 1535 1535 1535 1535 1535 1535 1534 1533 1532 1531 1530 1528 1526 1524 1522
1518 1517 1518 1518 1519 1521 1522 1524 1525 1527 1529 1530 1531 1533 1533 1534 1535 1535 1535 1535 1535 1535 1535 1535 1535 1535 1535 1535 1535 1535 1534 1533 1531 1530 1529 1527 1525 1522
1522 1522 1522 1522 1523 1524 1525 1527 1528 1529 1530 1532 1533 1534 1534 1535 1535 1535 1535 1535 1535 1535 1535 1535 1534 1534 1535 1535 1535 1535 1535 1534 1532 1531 1529 1527 1525 1524
1525 1525 1526 1526 1527 1527 1528 1529 1530 1531 1532 1533 1534 1534 1535 1535 1535 1535 1535 1535 1535 1535 1535 1534 1534 1535 1535 1535 1536 1536 1535 1534 1533 1531 1529 1528 1526 1524
1528 1528 1528 1528 1529 1529 1530 1530 1531 1532 1532 1533 1534 1534 1534 1535 1535 1535 1535 1535 1535 1535 1535 1535 1535 1535 1535 1536 1536 1536 1535 1534 1533 1531 1529 1528 1526 1523
1529 1529 1529 1529 1529 1529 1530 1530 1530 1531 1532 1532 1533 1533 1534 1534 1534 1534 1534 1535 1535 1535 1535 1535 1535 1535 1536 1536 1536 1535 1535 1534 1533 1531 1530 1528 1526 1524